Flag for Germany

Past Weather in Düsseldorf, North Rhine-Westphalia, Germany — Yesterday and Last 2 Weeks

Now
52 °F

Clear.


Feels Like: 50 °F
Forecast: 75 / 51 °F
Wind: 6 mph from South

Location: Duesseldorf
Current Time: Sep 22, 2020 at 6:44:31 am
Latest Report: Sep 22, 2020 at 5:50 am
Visibility: 10 mi
Pressure29.89 "Hg
Humidity: 82%
Dew Point: 46 °F
Location of DüsseldorfLocation

Past Weather in Düsseldorf — Graph

°F

Düsseldorf Temperature Yesterday

Maximum temperature yesterday: 79 °F (at 2:50 pm)
Minimum temperature yesterday: 46 °F (at 5:50 am)
Average temperature yesterday: 64 °F

High & Low Weather Summary for the Past Weeks

 TemperatureHumidityPressure
High93 °F (Sep 15, 3:50 pm)100% (Sep 7, 5:50 am)30.36 "Hg (Sep 7, 5:50 am)
Low43 °F (Sep 20, 5:50 am)23% (Sep 15, 5:20 pm)29.89 "Hg (Sep 22, 3:20 am)
Average63 °F66%30.15 "Hg
* Reported Sep 7 5:20 am — Sep 22 5:20 am, Düsseldorf. Weather by CustomWeather, © 2020

Note: Actual official high and low records may vary slightly from our data, if they occured in-between our weather recording intervals... More about our weather records

Düsseldorf Weather History for the Previous 24 Hours

Scroll right to see more
 ConditionsComfort  
Time TempWeatherWind HumidityBarometerVisibility
5:20 am
Tue, Sep 22
52 °FClear.6 mph82%29.89 "Hg10 mi
4:50 am50 °FClear.2 mph88%29.89 "Hg10 mi
4:20 am48 °FClear.2 mph94%29.89 "Hg10 mi
3:50 am50 °FClear.2 mph88%29.89 "Hg10 mi
3:20 am50 °FClear.2 mph88%29.89 "Hg10 mi
2:50 am52 °FClear.3 mph88%29.92 "Hg10 mi
2:20 am50 °FClear.5 mph94%29.92 "Hg10 mi
1:50 am52 °FClear.3 mph88%29.92 "Hg10 mi
1:20 am52 °FClear.3 mph88%29.92 "Hg10 mi
12:50 am52 °FClear.1 mph88%29.92 "Hg10 mi
12:20 am54 °FClear.No wind77%29.92 "Hg10 mi
11:50 pm
Mon, Sep 21
54 °FClear.1 mph77%29.92 "Hg10 mi
11:20 pm54 °FClear.2 mph77%29.92 "Hg10 mi
10:50 pm55 °FClear.1 mph72%29.92 "Hg10 mi
10:20 pm57 °FClear.2 mph67%29.92 "Hg10 mi
9:50 pm57 °FClear.2 mph67%29.92 "Hg10 mi
9:20 pm59 °FClear.3 mph63%29.92 "Hg10 mi
8:50 pm61 °FClear.1 mph59%29.95 "Hg10 mi
8:20 pm63 °FClear.2 mph56%29.95 "Hg10 mi
7:50 pm66 °FClear.2 mph49%29.92 "Hg10 mi
7:20 pm70 °FSunny.2 mph43%29.92 "Hg10 mi
6:50 pm77 °FSunny.2 mph30%29.95 "Hg10 mi
6:20 pm79 °FSunny.2 mph28%29.95 "Hg10 mi
5:50 pm79 °FPassing clouds.5 mph28%29.95 "HgN/A
5:20 pm79 °FPassing clouds.5 mph28%29.95 "HgN/A
4:50 pm79 °FPassing clouds.5 mph28%29.95 "HgN/A
4:20 pm79 °FPassing clouds.6 mph28%29.95 "HgN/A
3:50 pm79 °FSunny.3 mph28%29.95 "Hg10 mi
3:20 pm77 °FPassing clouds.7 mph30%29.95 "HgN/A
2:50 pm79 °FSunny.5 mph28%29.98 "Hg10 mi
2:20 pm77 °FSunny.5 mph30%29.98 "Hg10 mi
1:50 pm75 °FSunny.3 mph31%29.98 "Hg10 mi
1:20 pm75 °FSunny.3 mph34%29.98 "Hg10 mi
12:50 pm73 °FSunny.2 mph36%29.98 "Hg10 mi
12:20 pm72 °FSunny.2 mph38%30.01 "Hg10 mi
11:50 am72 °FSunny.2 mph38%30.01 "Hg10 mi
11:20 am68 °FPassing clouds.3 mph40%30.01 "HgN/A
10:50 am68 °FSunny.1 mph43%30.01 "Hg10 mi
10:20 am66 °FSunny.2 mph52%30.01 "Hg10 mi
9:50 am61 °FSunny.2 mph68%30.01 "Hg10 mi
9:20 am57 °FSunny.1 mph72%30.01 "Hg10 mi
8:50 am55 °FSunny.No wind72%30.01 "Hg10 mi
8:20 am50 °FSunny.1 mph82%30.01 "Hg10 mi
7:20 am46 °FSunny.2 mph93%30.01 "Hg10 mi
6:50 am48 °FClear.3 mph87%30.01 "Hg10 mi
6:20 am48 °FClear.3 mph87%30.01 "Hg10 mi
Weather by CustomWeather, © 2020

See weather overview